Orbital Elements at Epoch 2459200.5 (2020-Dec-17.0) TDB
Reference: JPL 17 (heliocentric ecliptic J2000)
Element | Value | Uncertainty (1-sigma) | Units |
e | .1873860728320885 | 4.1879e-08 | |
a | 2.392930333620786 | 1.257e-08 | au |
q | 1.944528515842807 | 1.0423e-07 | au |
i | 5.867150144299073 | 4.7298e-06 | deg |
node | 84.72027788775985 | 5.529e-05 | deg |
peri | 319.0690242896306 | 5.8083e-05 | deg |
M | 70.71528271954733 | 1.7871e-05 | deg |
tp | 2458934.914542698327 (2020-Mar-26.41454270) | 6.6048e-05 | TDB |
period | 1352.052356317217 3.70 | 1.0654e-05 2.917e-08 | d yr |
n | .2662618783347893 | 2.098e-09 | deg/d |
Q | 2.841332151398764 | 1.4926e-08 | au |
|
| | Orbit Determination Parameters
Additional Information
|